Location: Härggis
(46.9540°N, 8.4897°E)
Time: 21:25:21
(UTC+00:00)

NOSS 3-3 (C) - Pass Details

Date: 27 May 2022
Orbit: 780 x 1432 km, 63.4° (Epoch: 01 July)

Event Time Altitude Azimuth Distance (km) Brightness Sun altitude
Exits shadow 02:31:01 12° 213° (SSW) 2,312 5.3 -9.7°
Maximum altitude 02:36:17 82° 127° (SE) 920 3.9 -9.1°
Drops below altitude 10° 02:42:47 10° 41° (NE) 2,813 8.1 -8.3°
Sets 02:45:36 0° 41° (NE) 3,872 9.5 -8.0°
